Погода в Новой Туре

Россия / Республика Татарстан     55°52′05″N   48°50′28″E
темп.,
°C
ветер,
м/с
пор.,
м/с
влажн.,
%
обл.,
%
осадки,
мм/ч
давл.,
гПа
погр.,
м
28 января, чт
чт2800:00−5ю71392100 0.0 1018533
03:00−4ю61491100 0.1 1017565
06:00−4ю51292100 0.0 1017486
09:00−4ю61191100 0.0 1017438
12:00−5ю61189100 0.0 1017382
15:00−6ююв51191100 0.0 1016362
18:00−7ююв41093100 0.0 1017343
21:00−8ююв41094100 0.0 1016278
29 января, пт
пт2900:00−11юв4795100 0.0 1016141
03:00−11юв3696100 0.0 1015168
06:00−8юв4895100 0.1 1013309
09:00−8юв4995100 0.1 1012321
12:00−6ююв5994100 0.1 1011409
15:00−5ююв4893100 0.1 1010619
18:00−5ююв5994100 0.1 1009364
21:00−5юв4895100 0.1 1008240
30 января, сб
сб3000:00−4ююв3897100 1.0 1007327
03:00−5ююв3596100 1.4 1006131
06:00−7ююв349567 0.0 100577
09:00−6ююв4109379 0.0 1005250
12:00−4ю5109263 0.0 1004439
15:00−3ююв6119482 0.4 1002448
18:00−1ю61395100 2.0 1002765
21:00−4ююз7139195 2.1 1005461
31 января, вс
вс3100:00−4юз7129296 0.1 1008426
03:00−8ююз369198 0.1 1010119
06:00−9ююв3490100 0.0 101053
09:00−7юв41091100 0.0 1009271
12:00+1ююв614100100 0.3 1009682
15:00−1ююв81783100 0.3 1007595
18:00−2ююв92082100 0.0 1005688
21:00−2ююв112180100 0.0 1001832
1 февраля, пн
пн100:00−3ююв101894100 2.6 997969
03:000ю101696100 3.4 9951012
06:00−3юз91587100 0.3 997914
09:00−5зюз91589100 0.4 1002889
12:00−5зюз91587100 0.1 1006885
15:00−6зюз81488100 0.1 1011859
18:00−7зюз61391100 0.0 1015514
21:00−10юз489475 0.1 1017150